Voltar ao catálogo

NOAA 16 DEB

AtivoSSO
NORAD 41152·DEBRIS·🇺🇸 United States

Lançado Sep 21, 2000 de Vandenberg Space Force Base

Loading…

Próximas Passagens (próximas 24 horas)

TLE

AtualizadoSource: Space-Track

Época: Sep 14, 2026, 14:07 UTC

1 41152U 00055CK  26257.58829265  .00003333  00000-0  11112-2 0  9990
2 41152  98.8441  24.8446 0009165 266.3961  93.6177 14.38231906559516

Acompanhe NOAA 16 DEB em tempo real com AllMySat

Download on the App Store